Flag for Seychelles Weather past 2 weeks in Victoria, Seychelles

Now
88 °F

Passing clouds.


Feels Like: 102 °F
Forecast: 77 / 86 °F
Wind: No wind

Location: National Airport

Current Time: Apr 26, 2015 at 9:52:51 AM

Latest Report: Apr 26, 2015 at 9:00 AM


Visibility: N/A

Pressure: 29.83 "Hg

Humidity: 75%

Dew point: 79 °F

Location of VictoriaLocation

Historic Weather in Victoria — Graph

°F

Victoria temperature yesterday

Maximum temperature yesterday: 88 °F (at 10:00 AM)
Minimum temperature yesterday: 81 °F (at 5:00 AM)
Average temperature yesterday: 83 °F

Past Weeks' High & Low Weather Summary

 TemperatureHumidityPressure
High91 °F (Apr 11, 11:00 AM)94% (Apr 13, 12:00 AM)29.95 "Hg (Apr 13, 12:00 AM)
Low79 °F (Apr 13, 12:00 AM)55% (Apr 18, 4:00 PM)29.74 "Hg (Apr 14, 3:00 PM)
Average84 °F77%29.85 "Hg
* Reported Apr 11 9:00 AM — Apr 26 8:00 AM, Victoria, Weather by CustomWeather, © 2015

Note: Actual official high and low records may vary slightly from our data, if they occured in-between our weather recording intervals... More about our weather records

Advertising

Victoria weather history for previous 24 hours

 ConditionsComfort  
Time TempWeatherWind HumidityBarometerVisibility
8:00 AM
Sun, Apr 26
84 °FPassing clouds.2 mph84%29.83 "HgN/A
7:00 AM81 °FPassing clouds.2 mph89%29.80 "HgN/A
6:00 AM79 °FPassing clouds.2 mph94%29.77 "HgN/A
5:00 AM79 °FPassing clouds.2 mph94%29.77 "HgN/A
4:00 AM79 °FPassing clouds.No wind94%29.77 "HgN/A
3:00 AM79 °FPassing clouds.No wind94%29.77 "HgN/A
2:00 AM81 °FPassing clouds.No wind89%29.77 "HgN/A
1:00 AM81 °FPassing clouds.No wind89%29.80 "HgN/A
12:00 AM81 °FPassing clouds.No wind89%29.83 "HgN/A
11:00 PM
Sat, Apr 25
81 °FPassing clouds.No wind89%29.83 "HgN/A
10:00 PM81 °FPassing clouds.No wind94%29.83 "HgN/A
9:00 PM81 °FPassing clouds.3 mph89%29.83 "HgN/A
8:00 PM81 °FPassing clouds.3 mph89%29.80 "HgN/A
7:00 PM81 °FPassing clouds.No wind89%29.80 "HgN/A
6:00 PM82 °FScattered clouds.No wind84%29.77 "HgN/A
5:00 PM84 °FScattered clouds.No wind79%29.77 "HgN/A
4:00 PM84 °FScattered clouds.7 mph84%29.74 "HgN/A
3:00 PM84 °FPartly sunny.2 mph84%29.74 "HgN/A
2:00 PM82 °FSprinkles. Partly sunny.3 mph84%29.77 "HgN/A
1:00 PM84 °FPartly sunny.5 mph89%29.77 "HgN/A
12:00 PM86 °FSprinkles. Partly sunny.5 mph84%29.80 "HgN/A
11:00 AM86 °FPartly sunny.2 mph84%29.83 "HgN/A
10:00 AM88 °FSprinkles. Partly sunny.3 mph75%29.86 "HgN/A
9:00 AM86 °FSprinkles. Partly sunny.2 mph79%29.86 "HgN/A
Weather by CustomWeather, © 2015

See weather overviewHow to use our weather pages